Location: Poprad
(49.0500°N, 20.3000°E)
Time: 07:50:22
(UTC+02:00)

Daily predictions for brighter satellites

Satellite Brightness Start Highest point End
(mag) Time Altitude Azimuth Time Altitude Azimuth Time Altitude Azimuth
SPOT 5 4.4 20:21:55 10° ESE 20:25:22 20° ENE 20:28:44 10° NNE
Okean 2 Rocket 3.1 20:21:16 10° S 20:25:44 74° E 20:30:16 10° NNE
Cosmos 1441 Rocket 4.2 20:22:16 10° NNW 20:25:54 48° W 20:29:29 10° S
Atlas Centaur 2 4.3 20:21:41 10° SSW 20:26:04 16° S 20:30:06 10° SE
S3M 4.1 20:20:58 10° N 20:27:10 63° ENE 20:33:24 10° SSE
Meteor 2-4 Rocket 4.1 20:24:26 10° N 20:29:42 46° ENE 20:35:05 10° SE
Envisat 3.1 20:25:07 10° SSE 20:30:12 83° WSW 20:35:19 10° NNW
Cosmos 2360 Rocket 4.0 20:29:12 10° ESE 20:30:13 10° E 20:31:14 10° E
Cosmos 1980 Rocket 2.2 20:24:47 10° SSW 20:30:21 68° ESE 20:35:55 10° NNE
Cosmos 1553 Rocket 4.0 20:24:55 10° N 20:31:09 72° E 20:37:13 10° SSE
ERS-1 Rocket 3.7 20:26:57 10° SE 20:31:31 36° ENE 20:36:06 10° N
Iridium 30 4.4 20:30:35 10° S 20:33:43 86° W 20:37:30 10° N
USA 186 2.9 20:30:30 10° S 20:33:44 48° W 20:37:02 10° NNW
Cosmos 2056 Rocket 3.9 20:31:31 10° SSW 20:36:38 71° WNW 20:41:53 10° NNE
ATLAS 2AS CENTAUR R/B 4.0 20:33:09 10° SSE 20:38:51 23° ESE 20:44:47 10° ENE
Helios 1A 3.1 20:36:33 10° SSE 20:40:46 66° ENE 20:44:59 10° N
Meteor 1-29 4.1 20:39:09 10° NE 20:42:02 24° E 20:44:53 10° SSE
Cosmos 2266 Rocket 4.4 20:38:27 10° SSE 20:43:59 39° E 20:49:32 10° NNE
NOSS 3-1 (A) 3.4 20:38:56 10° SSW 20:44:46 77° SE 20:51:27 10° NE
SOZ 4.4 20:43:57 10° WNW 20:46:57 70° NNE 20:48:42 14° E
Cosmos 1697 Rocket 3.4 20:41:24 10° SW 20:46:57 61° WNW 20:52:34 10° NNE
NOAA 11 4.4 20:41:56 10° SE 20:47:16 55° ENE 20:52:39 10° N
Cosmos 1607 4.3 20:42:22 10° NW 20:48:45 59° NE 20:54:36 13° ESE
Cosmos 44 3.8 20:47:13 10° NW 20:51:28 48° WSW 20:55:49 10° SSE
ERBS 2.8 20:51:55 10° SSW 20:55:10 39° SE 20:58:27 10° ENE
Meteor 1-11 Rocket 3.8 20:51:23 10° S 20:57:10 63° E 21:02:50 10° NNE
Cosmos 1850 Rocket 4.0 20:54:29 10° NNW 20:59:52 80° ENE 21:04:52 12° SSE
Cosmos 1452 Rocket 3.5 20:55:22 10° SSW 21:00:38 82° ESE 21:05:58 10° NNE
Cosmos 1420 Rocket 3.9 21:01:03 10° S 21:06:10 66° ESE 21:11:19 10° NNE
Resurs 01 Rocket 3.9 21:03:35 10° SSW 21:07:12 24° W 21:10:50 10° NW
YAOGAN 6 3.2 21:04:00 10° S 21:07:30 56° W 21:11:00 10° NNW
Cosmos 2360 4.4 21:01:50 10° SSW 21:07:32 78° WNW 21:13:16 10° NNE
Cosmos 1633 4.1 21:05:50 10° SW 21:09:13 38° WNW 21:12:40 10° N
Okean 1-7 Rocket 4.1 21:05:47 10° N 21:10:03 42° ENE 21:13:00 18° SE
Cosmos 1655 Rocket 4.4 21:04:15 10° SSW 21:10:29 67° WNW 21:16:49 10° N
SPOT 1/Viking Rocket 4.2 21:10:35 17° SE 21:14:10 40° ENE 21:19:02 10° N
NOSS 3-1 (C) 4.1 21:09:32 10° WSW 21:15:25 61° NW 21:22:09 10° NE
Okean 1 Rocket 3.2 21:12:53 11° SSE 21:16:51 50° E 21:21:05 10° NNE
NOSS 2-3 (C) 4.3 21:18:08 10° S 21:22:34 40° ESE 21:27:45 10° NE
USA 215 4.3 21:17:05 10° ENE 21:23:13 45° N 21:29:22 10° WNW
Meteor 1-23 Rocket 4.2 21:18:51 10° NNW 21:24:28 88° ENE 21:29:21 14° S
MetOp-A 4.1 21:21:24 14° SSE 21:26:07 89° E 21:31:31 10° NNW
Cosmos 1300 Rocket 3.5 21:21:56 10° S 21:26:14 89° E 21:30:35 10° N
Cosmos 2151 Rocket 4.4 21:22:46 10° SSW 21:27:04 53° WNW 21:31:23 10° N
Terra 3.1 21:26:47 19° ESE 21:29:02 27° ENE 21:33:01 10° N
Cosmos 2278 Rocket 4.1 21:26:42 10° N 21:30:37 19° NE 21:34:33 10° E
USA 238 DEB 4.0 21:24:02 10° NW 21:31:04 62° NE 21:36:06 20° ESE
USA 238 4.0 21:24:08 10° NW 21:31:10 62° NE 21:36:12 20° ESE
Cosmos 1975 4.2 21:31:02 21° E 21:31:24 21° E 21:34:26 10° NE
Cosmos 1025 Rocket 2.9 21:31:24 10° N 21:35:43 79° E 21:38:13 24° SSE
Cosmos 2263 Rocket 2.4 21:31:26 10° NNW 21:37:07 68° WSW 21:41:13 19° SSE
Cosmos 2322 Rocket 2.1 21:31:50 10° SSW 21:37:33 81° ESE 21:43:16 10° NNE
SeaSat 1 3.7 21:33:04 10° NNE 21:37:44 43° NW 21:42:23 10° WSW
Helios 1B rocket 3.1 21:36:28 10° N 21:40:30 57° WNW 21:44:32 10° SSW
ARGOS 3.1 21:37:05 18° SSE 21:41:08 84° WSW 21:46:33 10° NNW
USA 245 3.9 21:37:31 19° SSE 21:41:23 88° E 21:45:53 10° NNW
BREEZE M DEB (TANK) 4.2 21:38:51 10° SSW 21:42:17 19° S 21:42:17 19° S
Abrixas rocket 2.0 21:41:50 10° W 21:45:07 80° S 21:46:11 40° E
Cosmos 220 Rocket 4.1 21:41:26 10° NNW 21:45:43 74° WSW 21:47:57 27° S
Cosmos 1844 Rocket 3.4 21:40:41 10° NNW 21:46:03 41° NE 21:49:01 24° ESE
SL-16 R/B 2.2 21:40:55 10° SSW 21:46:36 88° WNW 21:52:19 10° NNE
Cosmos 1238 Rocket 4.2 21:39:58 10° N 21:46:38 61° ENE 21:50:35 25° SSE
H-2A R/B 3.6 21:47:48 20° E 21:49:04 22° ENE 21:52:29 10° N
SL-08 RB Rocket 3.7 21:46:53 25° SSE 21:49:34 85° WSW 21:54:10 10° NNW
Tiangong 1 3.1 21:49:40 10° WSW 21:50:36 15° SW 21:50:36 15° SW
H-2A R/B 1.9 21:49:26 26° SSE 21:52:22 84° ENE 21:57:23 10° NNW
Cosmos 1743 4.4 21:54:06 19° ENE 21:54:06 19° ENE 21:56:18 10° NE
Cosmos 2322 4.1 21:51:08 27° SSE 21:53:31 39° ESE 21:58:46 10° NE
Cosmos 1536 3.8 21:49:57 10° SSW 21:53:53 47° WNW 21:57:51 10° N
SL-8 R/B 3.6 21:49:50 10° W 21:54:39 77° S 21:56:53 32° ESE
Cosmos 839 Rocket 4.5 21:49:27 10° SW 21:55:34 63° NW 22:02:01 10° NE
Lacrosse 5 rocket 3.7 21:54:21 10° WSW 21:55:43 12° SW 21:57:07 10° SSW
ATLAS 3B R/B 2.6 21:50:15 10° NW 21:57:07 87° NE 22:00:43 29° SE
COSMOS 2428 3.7 21:59:46 26° ESE 21:59:58 26° ESE 22:04:37 10° NE
Cosmos 1244 Rocket 4.4 21:56:07 21° S 22:00:21 69° E 22:06:29 10° NNE
Cosmos 2219 Rocket 3.9 22:02:26 16° E 22:02:26 16° E 22:04:55 10° ENE
NOSS 2-3 (D) 3.8 21:57:20 10° SSW 22:02:05 74° SE 22:07:47 10° NE
SPOT 5 3.1 22:00:07 24° S 22:03:03 66° WSW 22:07:46 10° NNW
Cosmos 1892 Rocket 3.5 22:02:19 10° N 22:06:48 76° E 22:08:12 43° SSE
NOSS 3-2 (C) 4.4 22:00:44 10° NW 22:07:48 53° NE 22:12:56 22° ESE
ERS-1 Rocket 4.3 22:06:05 12° SSW 22:10:18 34° W 22:14:54 10° NNW
Cosmos 1844 4.2 22:05:03 10° NNW 22:10:30 47° NE 22:12:52 31° ESE
EXPRESS MD2 3.6 22:07:38 10° WSW 22:11:05 77° SSE 22:18:12 10° ENE
Lacrosse 5 2.1 22:11:23 40° SSE 22:12:06 42° SE 22:16:52 10° ENE
GP-B 3.9 22:08:16 10° NNE 22:12:21 34° E 22:12:40 33° E
Cosmos 2360 Rocket 2.1 22:09:04 19° S 22:13:05 66° ESE 22:18:41 10° NNE
Atlas Centaur 2 4.3 22:10:52 10° SW 22:13:54 13° SSW 22:13:54 13° SSW
Cosmos 2333 Rocket 3.9 22:15:23 16° E 22:15:23 16° E 22:17:42 10° ENE
Cosmos 1980 Rocket 4.4 22:10:09 10° WSW 22:14:51 27° NW 22:19:34 10° NNE
Cosmos 1515 4.4 22:13:04 10° NNW 22:16:46 49° W 22:18:02 33° SSW
Molniya-1 4.0 22:19:12 10° NW 22:21:28 56° N 22:21:28 56° N
Cosmos 1486 Rocket 3.9 22:18:56 10° NNW 22:24:14 89° ENE 22:25:53 45° SSE
SL-08 R/B 4.5 22:22:16 33° S 22:25:16 70° E 22:31:35 10° NNE
DMSP B5D2-2 4.0 22:21:05 10° NNE 22:26:22 74° ESE 22:28:22 39° S
Cosmos 1544 Rocket 3.5 22:26:33 56° SSE 22:27:21 71° E 22:31:49 10° NNE
ATLAS 2AS CENTAUR R/B 3.0 22:21:00 10° SW 22:28:49 83° SE 22:37:01 10° NE
Cosmos 1302 Rocket 4.1 22:29:35 47° SSE 22:30:39 57° ESE 22:35:50 10° NNE
ERBS 3.7 22:28:33 10° W 22:31:51 39° NNW 22:35:09 10° NE
Cosmos 1437 Rocket 3.5 22:32:37 40° ENE 22:32:37 40° ENE 22:35:50 10° NNE
Cosmos 1500 3.8 22:36:31 40° SW 22:37:33 55° WNW 22:41:23 10° N
Cosmos 1110 Rocket 4.2 22:34:49 17° SW 22:38:44 69° WNW 22:43:56 10° NNE
Meteor 1-12 Rocket 4.1 22:37:02 39° S 22:39:16 85° E 22:44:57 10° NNE
Meteor 1-21 4.3 22:33:41 10° N 22:39:16 65° ENE 22:40:42 48° SE
NOSS 2-3 (E) 4.4 22:34:32 10° SW 22:39:23 64° NW 22:45:16 10° NE
Cosmos 1455 Rocket 2.9 22:39:46 66° S 22:40:21 83° E 22:44:51 10° N
Cosmos 405 3.2 22:40:31 67° W 22:40:34 67° WNW 22:44:09 10° N
Cosmos 2237 Rocket 3.9 22:42:56 17° E 22:42:56 17° E 22:45:24 10° ENE
CZ-2C R/B 4.1 22:41:12 26° E 22:41:56 28° ENE 22:45:58 10° N
Cosmos 1066 Rocket 4.4 22:37:57 10° NNW 22:43:16 60° W 22:45:16 37° SSW
CENTAUR R/B 3.8 22:43:15 10° NW 22:50:27 46° NNE 22:56:10 19° E
Cosmos 968 Rocket 4.4 22:46:48 10° N 22:51:29 35° NE 22:52:34 31° E
Cosmos 1745 Rocket 3.9 22:52:00 41° S 22:54:20 89° W 23:00:32 10° N
Cosmos 1818 4.2 22:56:56 39° E 22:56:56 39° E 23:01:07 10° NE
ALOS 2 4.1 22:57:59 24° ENE 22:58:11 24° ENE 23:01:42 10° N
Cosmos 1354 Rocket 3.9 22:52:51 10° NNW 22:58:14 89° WSW 22:59:07 63° SSE
COSMOS 2455 4.3 22:54:34 10° NNW 22:59:51 30° NE 23:03:13 18° E
USA 81 4.0 22:57:59 10° N 23:03:15 64° E 23:03:49 60° ESE
Cosmos 1842 3.6 23:01:30 10° N 23:04:53 62° NNE 23:04:53 62° NNE
USA 215 3.7 23:01:12 21° E 23:05:39 60° NNE 23:12:05 10° WNW
Terra 2.6 23:05:41 39° SW 23:06:35 44° W 23:11:09 10° NNW
Cosmos 1975 4.1 23:06:49 32° WSW 23:07:41 36° WNW 23:11:25 10° N
ATLAS CENTAUR R/B 3.5 23:10:13 10° NNW 23:12:42 17° NNE 23:13:41 15° NE
BREEZE-M (TANK) 3.7 23:04:27 10° WNW 23:13:24 45° SW 23:13:24 45° SW
Cosmos 2278 Rocket 2.2 23:10:03 10° NNW 23:15:45 73° ENE 23:16:39 61° ESE
Cosmos 2237 4.4 23:13:37 32° SW 23:16:21 70° WNW 23:22:04 10° NNE
Cosmos 1602 Rocket 3.9 23:15:27 10° NNW 23:19:38 57° W 23:19:38 57° W
USA 238 DEB 4.5 23:15:20 10° NW 23:21:49 39° WSW 23:23:31 34° SSW
USA 238 4.5 23:15:26 10° NW 23:21:55 40° WSW 23:23:37 35° SSW
Cosmos 1503 Rocket 4.2 23:16:47 10° NNW 23:22:05 59° WSW 23:22:38 56° SW
Cosmos 2322 Rocket 4.4 23:17:43 10° W 23:22:17 24° NW 23:26:51 10° N
NOSS 3-2 (A) 4.0 23:15:28 10° NW 23:22:49 67° SW 23:25:04 48° S
Cosmos 1666 3.5 23:23:52 51° NW 23:23:52 51° NW 23:27:13 10° N
CZ-4B R/B 3.3 23:18:46 10° NNE 23:23:14 69° ENE 23:23:14 69° ENE
Spot 4 4.0 23:24:02 58° WSW 23:24:15 58° W 23:29:00 10° NNW
Cosmos 1953 Rocket 4.4 23:20:22 10° N 23:24:16 43° ENE 23:24:16 43° ENE
H-2A R/B 2.7 23:24:56 46° W 23:24:56 46° W 23:29:02 10° NNW
Aureole 2 Rocket 4.5 23:28:13 24° NNE 23:28:13 24° NNE 23:29:37 10° NNE
Timation 1 Rocket 4.2 23:22:52 10° NNW 23:28:54 86° WSW 23:29:44 68° SSE
Cosmos 972 Rocket 4.4 23:29:15 53° E 23:29:15 53° E 23:34:48 10° NNE
Cosmos 1743 4.0 23:29:12 35° WNW 23:29:12 35° WNW 23:32:40 10° N
Cosmos 1844 Rocket 3.4 23:24:42 10° NW 23:29:57 40° WSW 23:30:40 38° SW
Cosmos 1241 Rocket 4.4 23:29:01 44° SW 23:31:20 89° ESE 23:37:50 10° NE
H-2A R/B 4.3 23:30:04 11° WSW 23:32:25 15° W 23:35:11 10° NW
deb Chang Zheng 4 3.8 23:29:56 10° N 23:34:04 70° NW 23:34:04 70° NW
Meteor 1-15 Rocket 4.3 23:34:39 62° ESE 23:34:59 63° E 23:40:50 10° NNE
Meteor 2-9 Rocket 4.2 23:36:49 67° SSW 23:37:37 84° WNW 23:43:21 10° N
Cosmos 2074 Rocket 4.4 23:37:09 44° ESE 23:37:38 45° E 23:43:32 10° NNE
NOSS 0 Rocket 3.9 23:38:10 59° ESE 23:38:17 60° ESE 23:44:26 10° NE
COSMOS 2428 3.1 23:41:45 38° WSW 23:43:50 61° WNW 23:49:31 10° NNE
CZ-4 R/B 4.2 23:39:48 10° N 23:44:27 56° WNW 23:44:53 54° W
Cosmos 2219 Rocket 2.1 23:44:06 74° SSW 23:44:40 88° WNW 23:50:22 10° NNE
SL-16 R/B 3.6 23:48:03 25° E 23:48:03 25° E 23:51:30 10° NE
ATLAS 3B R/B 4.0 23:42:00 10° WNW 23:46:57 22° WSW 23:47:57 22° WSW
Cosmos 2181 Rocket 4.1 23:42:55 10° NNW 23:49:20 71° W 23:50:29 58° SSW
Cosmos 1606 Rocket 4.3 23:51:18 49° NE 23:51:18 49° NE 23:54:46 10° NNE
Meteor 1-4 Rocket 4.0 23:52:17 38° N 23:52:17 38° N 23:54:45 10° N
CZ-2C R/B 2.6 23:46:53 10° NNE 23:52:06 68° E 23:52:06 68° E
RESURS DK-1 4.5 23:55:13 20° ENE 23:55:13 20° ENE 23:56:43 10° NE
